QPF
0.11 0.09 0.04 0.02 0.02 0.03 0.04 0.03 0.04 0.03 0.02 0.01 0.02 0.02 0.02 0.02 0.02 0.02 0.01 0.01 0.01 0.02 0.02 0.01 0.02 0.02 0.03 0.03 0.04 0.03 0.04 0.04 0.05 0.04 0.06 0.07 0.06 0.05 0.04 0.05 0.05 0.06 0.07
0.08 0.07 0.03 0.01 0.01 0.02 0.04 0.03 0.03 0.02 0.01 0.01 0.02 0.02 0.02 0.03 0.02 0.02 0.01 0.01 0.01 0.01 0.02 0.02 0.02 0.03 0.03 0.03 0.03 0.03 0.03 0.03 0.04 0.05 0.05 0.07 0.07 0.06 0.06 0.06 0.05 0.05 0.06
0.03 0.05 0.04 0.02 0.02 0.02 0.02 0.02 0.02 0.02 0.01 0.01 0.01 0.01 0.02 0.02 0.02 0.01 0.01 0.01 0.01 0.01 0.02 0.03 0.03 0.03 0.04 0.04 0.04 0.05 0.04 0.04 0.03 0.06 0.06 0.09 0.08 0.05 0.07 0.08 0.08 0.08 0.09
0.03 0.04 0.04 0.05 0.04 0.02 0.02 0.02 0.02 0.01 0.01 0.01 0.00 0.00 0.01 0.01 0.01 0.01 0.01 0.01 0.01 0.01 0.02 0.03 0.04 0.03 0.04 0.04 0.04 0.04 0.05 0.04 0.04 0.05 0.08 0.09 0.08 0.07 0.08 0.10 0.11 0.11 0.10
0.03 0.04 0.08 0.09 0.05 0.02 0.01 0.01 0.01 0.01 0.01 0.01 0.00 0.00 0.01 0.02 0.01 0.01 0.01 0.00 0.01 0.01 0.01 0.02 0.04 0.04 0.04 0.03 0.03 0.03 0.04 0.04 0.05 0.06 0.09 0.10 0.09 0.09 0.08 0.10 0.11 0.12 0.09
0.03 0.05 0.07 0.07 0.03 0.02 0.02 0.01 0.01 0.01 0.01 0.01 0.00 0.01 0.01 0.02 0.01 0.00 0.00 0.00 0.00 0.00 0.01 0.02 0.04 0.04 0.04 0.05 0.05 0.05 0.05 0.04 0.05 0.07 0.10 0.11 0.10 0.09 0.08 0.08 0.07 0.08 0.08
0.02 0.04 0.06 0.06 0.04 0.03 0.03 0.02 0.02 0.02 0.02 0.02 0.02 0.01 0.02 0.01 0.00 0.00 0.00 0.00 0.01 0.01 0.02 0.03 0.04 0.03 0.03 0.03 0.05 0.06 0.07 0.08 0.08 0.09 0.09 0.08 0.08 0.09 0.09 0.07 0.06 0.05 0.05
0.03 0.05 0.06 0.03 0.03 0.04 0.05 0.03 0.02 0.02 0.02 0.02 0.02 0.03 0.02 0.01 0.01 0.00 0.00 0.01 0.01 0.01 0.02 0.02 0.02 0.02 0.03 0.04 0.05 0.06 0.08 0.09 0.09 0.08 0.05 0.05 0.05 0.06 0.07 0.07 0.07 0.06 0.05
0.04 0.04 0.05 0.04 0.04 0.04 0.05 0.05 0.03 0.02 0.02 0.03 0.03 0.03 0.04 0.03 0.02 0.01 0.01 0.01 0.01 0.01 0.01 0.01 0.01 0.02 0.03 0.04 0.03 0.04 0.04 0.05 0.04 0.03 0.03 0.03 0.03 0.04 0.05 0.08 0.09 0.09 0.08
0.06 0.06 0.07 0.08 0.08 0.07 0.06 0.06 0.05 0.04 0.04 0.04 0.04 0.04 0.05 0.05 0.04 0.03 0.02 0.01 0.02 0.01 0.01 0.01 0.02 0.02 0.02 0.01 0.01 0.01 0.02 0.03 0.02 0.02 0.01 0.01 0.02 0.02 0.04 0.07 0.12 0.14 0.12
0.06 0.08 0.16 0.17 0.13 0.10 0.08 0.08 0.07 0.07 0.08 0.07 0.05 0.05 0.06 0.06 0.06 0.05 0.04 0.04 0.03 0.02 0.01 0.02 0.03 0.02 0.02 0.01 0.00 0.01 0.01 0.02 0.02 0.02 0.02 0.01 0.03 0.03 0.04 0.07 0.08 0.09 0.08
0.04 0.07 0.12 0.14 0.12 0.10 0.11 0.12 0.11 0.09 0.10 0.11 0.09 0.08 0.08 0.07 0.07 0.04 0.04 0.05 0.05 0.04 0.03 0.02 0.03 0.02 0.02 0.01 0.01 0.01 0.01 0.01 0.02 0.01 0.02 0.02 0.03 0.05 0.06 0.07 0.06 0.04 0.04
0.04 0.05 0.05 0.08 0.05 0.06 0.11 0.15 0.13 0.13 0.11 0.12 0.13 0.12 0.10 0.08 0.07 0.05 0.05 0.05 0.05 0.06 0.05 0.04 0.03 0.01 0.01 0.02 0.01 0.01 0.01 0.01 0.01 0.01 0.02 0.02 0.04 0.06 0.05 0.04 0.04 0.04 0.04
0.04 0.05 0.04 0.04 0.04 0.05 0.05 0.08 0.10 0.10 0.11 0.14 0.14 0.13 0.11 0.09 0.08 0.06 0.06 0.07 0.08 0.07 0.06 0.05 0.04 0.03 0.02 0.02 0.02 0.01 0.01 0.02 0.02 0.01 0.02 0.02 0.03 0.03 0.02 0.03 0.02 0.04 0.05
0.02 0.03 0.02 0.02 0.02 0.04 0.04 0.04 0.05 0.05 0.07 0.10 0.10 0.11 0.11 0.11 0.10 0.08 0.08 0.09 0.10 0.09 0.06 0.05 0.04 0.03 0.03 0.03 0.02 0.02 0.02 0.02 0.03 0.02 0.02 0.02 0.01 0.02 0.02 0.02 0.02 0.03 0.04
0.01 0.02 0.02 0.01 0.01 0.02 0.02 0.02 0.03 0.03 0.04 0.05 0.05 0.05 0.07 0.11 0.12 0.12 0.10 0.09 0.10 0.08 0.05 0.04 0.03 0.03 0.03 0.03 0.03 0.03 0.03 0.03 0.03 0.02 0.02 0.02 0.01 0.02 0.02 0.03 0.03 0.04 0.04
0.01 0.01 0.01 0.02 0.02 0.02 0.02 0.02 0.02 0.03 0.03 0.02 0.03 0.03 0.04 0.06 0.08 0.12 0.17 0.15 0.11 0.07 0.05 0.04 0.03 0.03 0.03 0.04 0.04 0.05 0.04 0.03 0.03 0.03 0.04 0.03 0.02 0.02 0.02 0.02 0.02 0.03 0.04
0.01 0.01 0.01 0.01 0.02 0.02 0.02 0.02 0.03 0.02 0.03 0.03 0.02 0.03 0.05 0.07 0.08 0.13 0.15 0.14 0.11 0.08 0.06 0.04 0.04 0.04 0.04 0.05 0.05 0.06 0.06 0.04 0.03 0.03 0.04 0.04 0.03 0.02 0.02 0.01 0.01 0.02 0.03
0.01 0.01 0.01 0.01 0.01 0.02 0.02 0.03 0.05 0.04 0.03 0.05 0.08 0.10 0.12 0.12 0.11 0.08 0.06 0.07 0.08 0.08 0.07 0.04 0.03 0.04 0.03 0.05 0.05 0.06 0.06 0.05 0.04 0.04 0.05 0.05 0.04 0.03 0.02 0.02 0.02 0.02 0.02
0.01 0.01 0.01 0.00 0.01 0.01 0.02 0.02 0.04 0.06 0.07 0.07 0.09 0.14 0.16 0.10 0.08 0.06 0.03 0.04 0.06 0.07 0.09 0.08 0.07 0.06 0.05 0.05 0.05 0.05 0.04 0.04 0.03 0.04 0.04 0.05 0.04 0.03 0.02 0.02 0.01 0.01 0.01
0.02 0.02 0.01 0.01 0.01 0.01 0.01 0.01 0.02 0.04 0.07 0.07 0.07 0.09 0.10 0.08 0.07 0.07 0.08 0.07 0.05 0.05 0.05 0.04 0.06 0.06 0.07 0.07 0.07 0.06 0.05 0.03 0.02 0.02 0.02 0.03 0.03 0.03 0.02 0.02 0.01 0.01 0.01
0.01 0.01 0.01 0.01 0.01 0.01 0.01 0.01 0.01 0.03 0.06 0.07 0.06 0.04 0.05 0.05 0.05 0.04 0.04 0.04 0.04 0.03 0.02 0.02 0.02 0.03 0.05 0.06 0.06 0.06 0.06 0.06 0.05 0.02 0.02 0.02 0.03 0.03 0.02 0.02 0.02 0.02 0.03
0.01 0.01 0.01 0.01 0.01 0.01 0.01 0.01 0.01 0.02 0.04 0.04 0.04 0.03 0.02 0.02 0.03 0.03 0.02 0.02 0.02 0.02 0.02 0.02 0.01 0.01 0.02 0.03 0.04 0.04 0.05 0.07 0.07 0.06 0.04 0.03 0.03 0.03 0.03 0.03 0.04 0.04 0.04
0.01 0.01 0.01 0.01 0.01 0.01 0.01 0.01 0.01 0.02 0.03 0.04 0.04 0.04 0.03 0.02 0.01 0.02 0.02 0.02 0.02 0.02 0.02 0.02 0.02 0.01 0.01 0.02 0.02 0.03 0.04 0.05 0.05 0.06 0.07 0.07 0.05 0.05 0.05 0.04 0.04 0.05 0.06
0.02 0.02 0.02 0.01 0.01 0.02 0.02 0.02 0.01 0.03 0.04 0.04 0.04 0.04 0.04 0.03 0.02 0.02 0.03 0.03 0.03 0.03 0.03 0.03 0.03 0.02 0.01 0.02 0.03 0.04 0.04 0.04 0.04 0.04 0.05 0.06 0.06 0.05 0.06 0.04 0.03 0.03 0.04
0.03 0.02 0.02 0.02 0.02 0.02 0.03 0.03 0.03 0.03 0.02 0.02 0.02 0.03 0.03 0.04 0.04 0.04 0.03 0.04 0.05 0.06 0.06 0.06 0.06 0.04 0.03 0.03 0.04 0.05 0.06 0.06 0.05 0.04 0.03 0.03 0.03 0.03 0.03 0.03 0.03 0.03 0.02
MSLP
1016.82 1017.20 1017.46 1017.57 1017.54 1017.37 1017.11 1016.79 1016.45 1016.10 1015.77 1015.44 1015.08 1014.68 1014.22 1013.69 1013.10 1012.47 1011.85 1011.27 1010.75 1010.34 1010.03 1009.82 1009.72 1009.68 1009.71 1009.79 1009.92 1010.11 1010.34 1010.62 1010.94 1011.25 1011.54 1011.76 1011.87 1011.88 1011.76 1011.57 1011.34 1011.14 1011.03
1016.89 1017.28 1017.53 1017.64 1017.61 1017.47 1017.25 1017.00 1016.75 1016.52 1016.29 1016.06 1015.79 1015.45 1015.01 1014.47 1013.85 1013.18 1012.51 1011.87 1011.32 1010.87 1010.53 1010.28 1010.11 1010.01 1009.94 1009.92 1009.94 1010.01 1010.16 1010.38 1010.66 1010.97 1011.29 1011.56 1011.75 1011.82 1011.77 1011.63 1011.44 1011.25 1011.14
1016.95 1017.33 1017.58 1017.69 1017.67 1017.55 1017.37 1017.19 1017.02 1016.89 1016.78 1016.65 1016.46 1016.18 1015.77 1015.25 1014.62 1013.93 1013.23 1012.57 1011.99 1011.51 1011.13 1010.84 1010.61 1010.41 1010.23 1010.07 1009.95 1009.89 1009.91 1010.04 1010.26 1010.56 1010.89 1011.22 1011.49 1011.67 1011.73 1011.68 1011.57 1011.44 1011.36
1017.02 1017.37 1017.62 1017.73 1017.72 1017.62 1017.48 1017.35 1017.26 1017.21 1017.18 1017.13 1017.02 1016.81 1016.45 1015.96 1015.35 1014.67 1013.97 1013.31 1012.72 1012.22 1011.82 1011.48 1011.17 1010.88 1010.58 1010.28 1010.01 1009.79 1009.67 1009.68 1009.81 1010.07 1010.41 1010.78 1011.13 1011.42 1011.61 1011.69 1011.69 1011.65 1011.62
1017.09 1017.43 1017.66 1017.77 1017.77 1017.69 1017.58 1017.49 1017.44 1017.44 1017.47 1017.48 1017.43 1017.27 1016.98 1016.53 1015.96 1015.32 1014.65 1014.01 1013.44 1012.94 1012.52 1012.14 1011.77 1011.39 1010.98 1010.55 1010.13 1009.75 1009.48 1009.35 1009.38 1009.57 1009.88 1010.28 1010.69 1011.08 1011.39 1011.61 1011.73 1011.81 1011.86
1017.16 1017.48 1017.71 1017.83 1017.85 1017.78 1017.68 1017.60 1017.56 1017.58 1017.63 1017.67 1017.66 1017.54 1017.30 1016.91 1016.40 1015.81 1015.19 1014.60 1014.05 1013.57 1013.15 1012.75 1012.34 1011.89 1011.39 1010.85 1010.30 1009.78 1009.37 1009.10 1009.01 1009.11 1009.37 1009.75 1010.20 1010.65 1011.06 1011.41 1011.66 1011.86 1012.01
1017.18 1017.50 1017.74 1017.89 1017.92 1017.87 1017.77 1017.68 1017.63 1017.63 1017.67 1017.71 1017.70 1017.61 1017.40 1017.06 1016.61 1016.09 1015.54 1015.00 1014.50 1014.05 1013.65 1013.24 1012.81 1012.33 1011.77 1011.15 1010.51 1009.89 1009.35 1008.95 1008.74 1008.73 1008.90 1009.23 1009.67 1010.15 1010.63 1011.07 1011.45 1011.76 1012.01
1017.14 1017.47 1017.74 1017.92 1017.98 1017.94 1017.85 1017.74 1017.66 1017.61 1017.61 1017.61 1017.59 1017.49 1017.30 1017.01 1016.61 1016.15 1015.67 1015.19 1014.74 1014.33 1013.94 1013.56 1013.13 1012.64 1012.07 1011.42 1010.73 1010.04 1009.41 1008.91 1008.59 1008.45 1008.52 1008.76 1009.14 1009.61 1010.12 1010.62 1011.08 1011.49 1011.85
1017.01 1017.37 1017.69 1017.91 1018.01 1018.00 1017.91 1017.78 1017.66 1017.56 1017.50 1017.45 1017.38 1017.26 1017.07 1016.80 1016.44 1016.03 1015.59 1015.16 1014.75 1014.38 1014.02 1013.66 1013.26 1012.79 1012.24 1011.61 1010.92 1010.21 1009.55 1008.97 1008.55 1008.30 1008.25 1008.38 1008.66 1009.07 1009.56 1010.08 1010.60 1011.10 1011.55
1016.81 1017.22 1017.58 1017.86 1018.00 1018.02 1017.94 1017.80 1017.65 1017.50 1017.38 1017.27 1017.15 1017.00 1016.79 1016.52 1016.17 1015.78 1015.37 1014.97 1014.58 1014.23 1013.90 1013.56 1013.20 1012.78 1012.28 1011.70 1011.06 1010.38 1009.71 1009.11 1008.61 1008.27 1008.09 1008.09 1008.26 1008.58 1009.01 1009.51 1010.05 1010.60 1011.13
1016.60 1017.05 1017.46 1017.77 1017.96 1018.02 1017.96 1017.83 1017.66 1017.48 1017.31 1017.15 1016.98 1016.78 1016.55 1016.25 1015.89 1015.50 1015.09 1014.68 1014.29 1013.93 1013.60 1013.29 1012.96 1012.60 1012.17 1011.67 1011.11 1010.50 1009.87 1009.27 1008.73 1008.31 1008.03 1007.91 1007.95 1008.15 1008.50 1008.95 1009.48 1010.05 1010.63
1016.43 1016.90 1017.34 1017.69 1017.91 1018.00 1017.97 1017.86 1017.70 1017.51 1017.32 1017.12 1016.92 1016.68 1016.40 1016.07 1015.69 1015.26 1014.81 1014.36 1013.94 1013.55 1013.21 1012.89 1012.59 1012.28 1011.92 1011.52 1011.05 1010.52 1009.96 1009.39 1008.85 1008.39 1008.02 1007.79 1007.71 1007.79 1008.03 1008.41 1008.91 1009.48 1010.09
1016.36 1016.83 1017.28 1017.63 1017.87 1017.99 1018.00 1017.92 1017.78 1017.61 1017.42 1017.21 1016.98 1016.71 1016.40 1016.02 1015.58 1015.10 1014.59 1014.08 1013.60 1013.15 1012.77 1012.43 1012.13 1011.85 1011.56 1011.24 1010.86 1010.43 1009.95 1009.44 1008.91 1008.42 1008.00 1007.67 1007.49 1007.46 1007.60 1007.91 1008.35 1008.90 1009.53
1016.41 1016.87 1017.28 1017.62 1017.86 1018.00 1018.04 1018.00 1017.91 1017.77 1017.60 1017.40 1017.16 1016.87 1016.51 1016.08 1015.58 1015.03 1014.44 1013.85 1013.28 1012.77 1012.31 1011.93 1011.62 1011.35 1011.10 1010.84 1010.55 1010.21 1009.81 1009.35 1008.86 1008.36 1007.90 1007.52 1007.25 1007.13 1007.18 1007.41 1007.80 1008.32 1008.94
1016.59 1017.00 1017.36 1017.66 1017.89 1018.03 1018.10 1018.11 1018.06 1017.97 1017.83 1017.65 1017.41 1017.09 1016.70 1016.22 1015.65 1015.02 1014.34 1013.66 1013.00 1012.40 1011.87 1011.43 1011.08 1010.81 1010.57 1010.36 1010.13 1009.85 1009.51 1009.11 1008.65 1008.17 1007.69 1007.27 1006.94 1006.76 1006.75 1006.91 1007.25 1007.74 1008.35
1016.85 1017.19 1017.49 1017.74 1017.94 1018.08 1018.17 1018.22 1018.22 1018.17 1018.07 1017.90 1017.66 1017.33 1016.89 1016.35 1015.72 1015.01 1014.25 1013.48 1012.73 1012.04 1011.44 1010.94 1010.55 1010.25 1010.02 1009.82 1009.62 1009.39 1009.09 1008.73 1008.31 1007.84 1007.36 1006.92 1006.56 1006.34 1006.28 1006.40 1006.71 1007.17 1007.76
1017.12 1017.39 1017.63 1017.83 1017.99 1018.13 1018.24 1018.32 1018.35 1018.34 1018.26 1018.10 1017.85 1017.49 1017.01 1016.42 1015.72 1014.93 1014.10 1013.26 1012.44 1011.68 1011.01 1010.47 1010.03 1009.70 1009.46 1009.26 1009.07 1008.86 1008.59 1008.26 1007.85 1007.40 1006.93 1006.48 1006.12 1005.87 1005.79 1005.89 1006.17 1006.62 1007.21
1017.33 1017.55 1017.73 1017.89 1018.03 1018.16 1018.28 1018.38 1018.43 1018.44 1018.37 1018.20 1017.93 1017.53 1017.01 1016.36 1015.60 1014.76 1013.87 1012.97 1012.10 1011.29 1010.59 1010.00 1009.54 1009.18 1008.92 1008.72 1008.53 1008.32 1008.06 1007.74 1007.35 1006.91 1006.44 1006.00 1005.64 1005.39 1005.31 1005.40 1005.68 1006.12 1006.70
1017.42 1017.61 1017.76 1017.89 1018.02 1018.15 1018.28 1018.38 1018.44 1018.44 1018.36 1018.17 1017.86 1017.42 1016.85 1016.15 1015.34 1014.46 1013.53 1012.60 1011.70 1010.87 1010.15 1009.54 1009.06 1008.70 1008.43 1008.21 1008.02 1007.81 1007.56 1007.24 1006.85 1006.42 1005.96 1005.53 1005.17 1004.93 1004.85 1004.95 1005.23 1005.68 1006.25
1017.38 1017.56 1017.70 1017.83 1017.96 1018.09 1018.21 1018.31 1018.36 1018.34 1018.23 1018.01 1017.66 1017.17 1016.56 1015.82 1014.97 1014.06 1013.11 1012.16 1011.25 1010.42 1009.69 1009.08 1008.60 1008.24 1007.96 1007.74 1007.55 1007.34 1007.09 1006.77 1006.39 1005.97 1005.52 1005.10 1004.75 1004.52 1004.45 1004.55 1004.84 1005.28 1005.85
1017.23 1017.42 1017.57 1017.71 1017.84 1017.96 1018.07 1018.15 1018.17 1018.13 1017.98 1017.72 1017.33 1016.81 1016.16 1015.39 1014.52 1013.59 1012.63 1011.68 1010.77 1009.94 1009.21 1008.61 1008.13 1007.77 1007.49 1007.28 1007.09 1006.89 1006.65 1006.34 1005.98 1005.57 1005.13 1004.72 1004.38 1004.15 1004.08 1004.19 1004.47 1004.91 1005.48
1017.02 1017.22 1017.39 1017.53 1017.66 1017.77 1017.85 1017.90 1017.89 1017.81 1017.62 1017.33 1016.91 1016.36 1015.70 1014.92 1014.05 1013.12 1012.16 1011.20 1010.29 1009.45 1008.72 1008.11 1007.62 1007.26 1006.99 1006.78 1006.60 1006.42 1006.20 1005.92 1005.58 1005.19 1004.77 1004.37 1004.04 1003.81 1003.74 1003.83 1004.10 1004.53 1005.09
1016.79 1017.01 1017.19 1017.33 1017.44 1017.52 1017.57 1017.57 1017.52 1017.39 1017.17 1016.86 1016.43 1015.89 1015.23 1014.46 1013.61 1012.69 1011.72 1010.76 1009.83 1008.97 1008.21 1007.58 1007.07 1006.68 1006.40 1006.20 1006.04 1005.88 1005.70 1005.46 1005.15 1004.80 1004.41 1004.04 1003.71 1003.49 1003.40 1003.47 1003.71 1004.11 1004.64
1016.60 1016.83 1016.99 1017.11 1017.19 1017.22 1017.22 1017.17 1017.06 1016.90 1016.66 1016.35 1015.93 1015.42 1014.79 1014.06 1013.24 1012.33 1011.37 1010.40 1009.44 1008.53 1007.72 1007.03 1006.47 1006.04 1005.74 1005.53 1005.38 1005.26 1005.12 1004.93 1004.69 1004.39 1004.05 1003.70 1003.39 1003.16 1003.06 1003.10 1003.30 1003.66 1004.15
1016.47 1016.68 1016.82 1016.90 1016.92 1016.89 1016.81 1016.70 1016.55 1016.36 1016.12 1015.82 1015.44 1014.98 1014.42 1013.75 1012.97 1012.09 1011.14 1010.14 1009.14 1008.17 1007.28 1006.50 1005.87 1005.38 1005.03 1004.81 1004.67 1004.58 1004.49 1004.37 1004.20 1003.97 1003.69 1003.39 1003.10 1002.88 1002.75 1002.76 1002.92 1003.22 1003.65
1016.39 1016.57 1016.67 1016.69 1016.64 1016.53 1016.38 1016.21 1016.01 1015.80 1015.56 1015.30 1014.98 1014.60 1014.12 1013.53 1012.82 1011.98 1011.04 1010.03 1008.98 1007.93 1006.95 1006.08 1005.35 1004.79 1004.38 1004.13 1004.00 1003.94 1003.91 1003.86 1003.77 1003.63 1003.42 1003.17 1002.92 1002.71 1002.57 1002.53 1002.64 1002.87 1003.24
Thickness
5796 5795 5793 5791 5788 5785 5782 5779 5775 5772 5769 5765 5761 5757 5755 5754 5754 5754 5753 5752 5751 5751 5750 5749 5748 5747 5744 5743 5741 5739 5736 5734 5734 5730 5727 5729 5731 5731 5731 5731 5730 5729 5728
5788 5789 5788 5785 5783 5781 5779 5775 5772 5770 5767 5764 5761 5758 5755 5753 5752 5751 5751 5750 5749 5749 5748 5746 5745 5745 5743 5741 5740 5738 5734 5733 5733 5728 5722 5718 5720 5725 5728 5728 5728 5727 5727
5785 5784 5783 5782 5780 5778 5776 5775 5771 5768 5766 5763 5760 5756 5752 5749 5747 5747 5746 5747 5747 5746 5746 5745 5744 5743 5742 5739 5738 5737 5734 5730 5730 5730 5724 5716 5712 5716 5721 5723 5724 5724 5723
5783 5781 5781 5779 5777 5777 5776 5774 5770 5767 5765 5762 5757 5752 5748 5744 5745 5745 5745 5745 5745 5744 5744 5743 5742 5741 5741 5739 5738 5737 5734 5731 5728 5728 5727 5725 5722 5715 5712 5715 5719 5720 5720
5781 5780 5780 5780 5778 5777 5774 5772 5768 5765 5763 5759 5756 5752 5748 5746 5744 5743 5742 5742 5742 5742 5742 5742 5740 5739 5738 5738 5737 5735 5734 5731 5729 5726 5725 5723 5721 5719 5713 5708 5711 5714 5716
5780 5779 5779 5777 5774 5773 5771 5768 5764 5761 5759 5757 5754 5750 5747 5744 5742 5740 5738 5738 5738 5740 5740 5740 5739 5737 5736 5736 5735 5734 5732 5730 5728 5726 5724 5722 5719 5715 5712 5708 5706 5707 5710
5775 5772 5770 5769 5768 5767 5766 5762 5760 5757 5756 5753 5751 5749 5746 5743 5740 5738 5737 5735 5735 5736 5737 5737 5736 5736 5735 5735 5733 5732 5730 5728 5726 5724 5723 5722 5720 5718 5714 5710 5705 5704 5706
5768 5766 5766 5764 5762 5762 5761 5759 5756 5754 5752 5750 5748 5747 5745 5742 5739 5738 5736 5735 5735 5735 5736 5735 5735 5734 5733 5732 5731 5729 5727 5726 5724 5722 5721 5720 5719 5718 5715 5711 5706 5701 5700
5761 5760 5759 5758 5758 5757 5756 5754 5750 5750 5748 5747 5745 5744 5742 5740 5738 5736 5735 5734 5734 5734 5734 5733 5732 5731 5730 5729 5727 5725 5724 5723 5721 5720 5719 5717 5717 5716 5714 5712 5709 5702 5695
5753 5754 5753 5751 5752 5752 5751 5750 5747 5745 5744 5743 5742 5741 5738 5736 5735 5733 5731 5731 5731 5732 5731 5729 5728 5726 5725 5724 5723 5722 5721 5719 5718 5717 5716 5714 5713 5712 5711 5709 5707 5704 5699
5747 5748 5747 5747 5747 5746 5745 5743 5742 5741 5740 5738 5737 5736 5734 5733 5731 5729 5729 5729 5728 5728 5726 5725 5724 5723 5722 5721 5719 5718 5717 5715 5714 5713 5712 5710 5710 5708 5707 5705 5704 5702 5699
5742 5743 5743 5742 5740 5737 5738 5738 5737 5737 5736 5736 5734 5732 5730 5728 5726 5725 5725 5725 5724 5724 5723 5722 5720 5719 5718 5716 5715 5714 5713 5711 5709 5709 5708 5707 5706 5704 5703 5702 5700 5699 5698
5737 5738 5738 5737 5735 5733 5732 5733 5733 5733 5733 5731 5729 5726 5725 5723 5722 5721 5721 5720 5719 5719 5719 5717 5715 5715 5714 5713 5711 5710 5709 5707 5706 5705 5704 5703 5702 5699 5698 5698 5697 5696 5696
5732 5732 5731 5730 5729 5729 5729 5728 5728 5727 5727 5726 5723 5721 5720 5719 5718 5718 5717 5715 5713 5712 5712 5712 5712 5711 5710 5709 5708 5707 5705 5704 5703 5702 5701 5700 5699 5697 5695 5694 5692 5691 5690
5724 5724 5723 5723 5723 5723 5722 5722 5721 5720 5720 5718 5716 5715 5715 5714 5713 5712 5712 5710 5708 5707 5706 5707 5706 5706 5705 5705 5704 5702 5701 5699 5697 5697 5696 5696 5696 5695 5693 5691 5689 5687 5684
5718 5718 5718 5717 5717 5717 5717 5716 5715 5714 5714 5712 5710 5709 5708 5707 5707 5706 5704 5703 5702 5700 5699 5699 5700 5700 5700 5700 5699 5698 5696 5695 5693 5691 5690 5690 5690 5689 5689 5688 5687 5685 5681
5712 5711 5711 5711 5710 5711 5712 5710 5709 5708 5706 5705 5704 5702 5701 5700 5699 5700 5697 5695 5695 5694 5692 5692 5692 5693 5693 5694 5693 5692 5690 5689 5688 5686 5685 5685 5684 5683 5682 5681 5681 5679 5678
5705 5705 5705 5704 5704 5704 5704 5704 5702 5701 5699 5697 5697 5696 5695 5693 5693 5691 5689 5689 5688 5687 5687 5686 5686 5686 5687 5687 5686 5686 5684 5682 5682 5681 5680 5678 5677 5677 5676 5674 5672 5671 5671
5700 5699 5699 5698 5698 5697 5697 5696 5694 5693 5691 5690 5689 5689 5688 5686 5685 5684 5683 5683 5682 5680 5679 5679 5679 5679 5679 5679 5679 5679 5677 5675 5675 5675 5674 5673 5672 5671 5670 5667 5665 5663 5662
5693 5692 5692 5691 5690 5690 5690 5687 5685 5684 5683 5683 5683 5683 5682 5680 5678 5677 5677 5677 5675 5674 5673 5672 5671 5671 5671 5672 5672 5672 5670 5668 5667 5667 5667 5667 5666 5665 5663 5661 5658 5655 5654
5686 5685 5683 5682 5682 5683 5682 5679 5678 5677 5678 5678 5677 5676 5675 5674 5672 5671 5671 5670 5669 5667 5666 5664 5664 5664 5665 5666 5665 5664 5662 5662 5660 5659 5659 5660 5659 5658 5657 5655 5653 5651 5649
5678 5677 5674 5673 5674 5674 5673 5671 5669 5671 5672 5670 5669 5668 5667 5667 5667 5664 5663 5663 5662 5659 5657 5656 5656 5657 5658 5658 5658 5657 5657 5657 5654 5653 5654 5653 5653 5651 5650 5649 5647 5645 5642
5670 5669 5667 5665 5666 5666 5666 5663 5663 5664 5664 5662 5660 5660 5660 5659 5658 5656 5655 5654 5653 5651 5650 5649 5648 5649 5650 5651 5651 5650 5650 5650 5648 5648 5648 5647 5646 5645 5644 5642 5640 5638 5634
5662 5661 5659 5658 5657 5658 5659 5658 5658 5657 5655 5653 5651 5651 5650 5650 5650 5649 5648 5647 5646 5645 5644 5643 5642 5642 5642 5642 5642 5642 5641 5641 5641 5640 5640 5639 5638 5637 5636 5634 5631 5629 5627
5656 5654 5652 5650 5650 5651 5651 5652 5651 5650 5647 5646 5644 5643 5642 5642 5641 5640 5640 5640 5641 5640 5639 5638 5637 5636 5635 5637 5637 5635 5634 5633 5633 5631 5630 5628 5627 5626 5625 5624 5622 5621 5620
5648 5646 5645 5644 5644 5644 5644 5644 5645 5644 5641 5639 5638 5637 5635 5635 5634 5633 5632 5633 5633 5634 5634 5633 5632 5632 5632 5631 5629 5628 5628 5627 5624 5622 5621 5620 5618 5618 5617 5615 5614 5613 5612